| time (UTC) | temp F | wind direction | speed knots | gust knots | rain 1hr in | rain 24hr in | rain mn in | humidity % | barometer mb |
| 20260831210305 | 96 | 125 | 7.8 | 17.4 | 0.00 | 0.00 | 0.00 | 36 | 1013.5 |
| 20260831204804 | 96 | 161 | 6.1 | 10.4 | 0.00 | 0.00 | 0.00 | 37 | 1013.7 |
| 20260831204305 | 96 | 115 | 7.0 | 13.9 | 0.00 | 0.00 | 0.00 | 38 | 1013.8 |
| 20260831203804 | 95 | 166 | 7.8 | 14.8 | 0.00 | 0.00 | 0.00 | 38 | 1014.0 |
| 20260831203305 | 95 | 152 | 5.2 | 15.6 | 0.00 | 0.00 | 0.00 | 37 | 1014.0 |
| 20260831201804 | 95 | 93 | 7.8 | 13.0 | 0.00 | 0.00 | 0.00 | 39 | 1014.4 |
| 20260831201304 | 95 | 132 | 5.2 | 14.8 | 0.00 | 0.00 | 0.00 | 39 | 1014.5 |
| 20260831200304 | 95 | 163 | 8.7 | 15.6 | 0.00 | 0.00 | 0.00 | 39 | 1014.6 |
| 20260831194805 | 96 | 165 | 8.7 | 13.9 | 0.00 | 0.00 | 0.00 | 39 | 1014.7 |
| 20260831194304 | 95 | 202 | 4.3 | 12.2 | 0.00 | 0.00 | 0.00 | 40 | 1014.8 |
| 20260831193804 | 94 | 180 | 6.1 | 14.8 | 0.00 | 0.00 | 0.00 | 41 | 1014.9 |
| 20260831193304 | 95 | 189 | 5.2 | 20.0 | 0.00 | 0.00 | 0.00 | 40 | 1014.9 |
| 20260831191804 | 94 | 160 | 5.2 | 20.0 | 0.00 | 0.00 | 0.00 | 41 | 1015.2 |
| 20260831191304 | 94 | 160 | 7.8 | 15.6 | 0.00 | 0.00 | 0.00 | 43 | 1015.3 |
| 20260831190805 | 94 | 159 | 8.7 | 17.4 | 0.00 | 0.00 | 0.00 | 42 | 1015.3 |
| 20260831190304 | 93 | 162 | 5.2 | 17.4 | 0.00 | 0.00 | 0.00 | 42 | 1015.4 |
| 20260831184805 | 93 | 130 | 6.1 | 10.4 | 0.00 | 0.00 | 0.00 | 42 | 1015.5 |
| 20260831184305 | 93 | 134 | 8.7 | 15.6 | 0.00 | 0.00 | 0.00 | 44 | 1015.6 |
| 20260831183305 | 93 | 168 | 8.7 | 17.4 | 0.00 | 0.00 | 0.00 | 43 | 1015.7 |
| 20260831181304 | 93 | 156 | 8.7 | 17.4 | 0.00 | 0.00 | 0.00 | 46 | 1015.7 |
| 20260831180804 | 92 | 201 | 6.1 | 13.0 | 0.00 | 0.00 | 0.00 | 48 | 1015.8 |
| 20260831180304 | 92 | 153 | 4.3 | 20.0 | 0.00 | 0.00 | 0.00 | 49 | 1016.0 |
| 20260831174804 | 91 | 142 | 11.3 | 13.9 | 0.00 | 0.00 | 0.00 | 48 | 1016.1 |
| 20260831174305 | 91 | 152 | 13.9 | 18.2 | 0.00 | 0.00 | 0.00 | 49 | 1016.1 |
| 20260831173804 | 91 | 158 | 8.7 | 15.6 | 0.00 | 0.00 | 0.00 | 50 | 1016.2 |
| 20260831173304 | 91 | 133 | 8.7 | 14.8 | 0.00 | 0.00 | 0.00 | 50 | 1016.3 |
| 20260831171805 | 90 | 122 | 8.7 | 13.0 | 0.00 | 0.00 | 0.00 | 54 | 1016.4 |
| 20260831171304 | 90 | 114 | 12.2 | 14.8 | 0.00 | 0.00 | 0.00 | 52 | 1016.5 |
| 20260831170804 | 90 | 133 | 7.0 | 13.9 | 0.00 | 0.00 | 0.00 | 53 | 1016.5 |
| 20260831170305 | 90 | 164 | 6.1 | 18.2 | 0.00 | 0.00 | 0.00 | 52 | 1016.5 |
| 20260831164804 | 89 | 161 | 8.7 | 13.0 | 0.00 | 0.00 | 0.00 | 54 | 1016.5 |
| 20260831163804 | 88 | 144 | 7.0 | 13.0 | 0.00 | 0.00 | 0.00 | 58 | 1016.7 |
| 20260831161804 | 87 | 176 | 4.3 | 10.4 | 0.00 | 0.00 | 0.00 | 60 | 1016.6 |
| 20260831161304 | 86 | 210 | 5.2 | 11.3 | 0.00 | 0.00 | 0.00 | 61 | 1016.6 |
| 20260831160805 | 86 | 161 | 5.2 | 8.7 | 0.00 | 0.00 | 0.00 | 61 | 1016.7 |
| 20260831160305 | 86 | 174 | 5.2 | 14.8 | 0.00 | 0.00 | 0.00 | 62 | 1016.6 |
| 20260831154805 | 85 | 195 | 4.3 | 10.4 | 0.00 | 0.00 | 0.00 | 64 | 1016.6 |
| 20260831154305 | 85 | 157 | 5.2 | 11.3 | 0.00 | 0.00 | 0.00 | 65 | 1016.6 |
| 20260831153804 | 84 | 196 | 5.2 | 8.7 | 0.00 | 0.00 | 0.00 | 66 | 1016.5 |
| 20260831153305 | 84 | 173 | 5.2 | 10.4 | 0.00 | 0.00 | 0.00 | 67 | 1016.5 |
| 20260831151805 | 85 | 189 | 5.2 | 10.4 | 0.00 | 0.00 | 0.00 | 67 | 1016.4 |
| 20260831151305 | 84 | 170 | 4.3 | 10.4 | 0.00 | 0.00 | 0.00 | 68 | 1016.4 |
| 20260831150805 | 84 | 187 | 4.3 | 10.4 | 0.00 | 0.00 | 0.00 | 69 | 1016.4 |
| 20260831150305 | 83 | 160 | 7.8 | 15.6 | 0.00 | 0.00 | 0.00 | 68 | 1016.3 |
| 20260831144804 | 84 | 153 | 6.1 | 10.4 | 0.00 | 0.00 | 0.00 | 70 | 1016.2 |
| 20260831144304 | 83 | 187 | 5.2 | 13.9 | 0.00 | 0.00 | 0.00 | 71 | 1016.2 |
| 20260831141804 | 82 | 176 | 6.1 | 11.3 | 0.00 | 0.00 | 0.00 | 73 | 1016.1 |
| 20260831141305 | 82 | 175 | 5.2 | 8.7 | 0.00 | 0.00 | 0.00 | 74 | 1016.0 |
| 20260831140804 | 82 | 172 | 3.5 | 8.7 | 0.00 | 0.00 | 0.00 | 74 | 1015.9 |
| 20260831140304 | 81 | 192 | 3.5 | 11.3 | 0.00 | 0.00 | 0.00 | 75 | 1015.9 |
| 20260831134804 | 80 | 194 | 1.7 | 7.0 | 0.00 | 0.00 | 0.00 | 76 | 1015.9 |
| 20260831133805 | 80 | 194 | 1.7 | 2.6 | 0.00 | 0.00 | 0.00 | 77 | 1015.8 |
| 20260831133304 | 79 | 191 | 2.6 | 8.7 | 0.00 | 0.00 | 0.00 | 78 | 1015.9 |
| 20260831131804 | 78 | 153 | 2.6 | 5.2 | 0.00 | 0.00 | 0.00 | 78 | 1015.7 |
| 20260831131304 | 78 | 163 | 2.6 | 5.2 | 0.00 | 0.00 | 0.00 | 78 | 1015.7 |
| 20260831130804 | 77 | 149 | 1.7 | 7.8 | 0.00 | 0.00 | 0.00 | 78 | 1015.7 |
| 20260831130305 | 77 | 143 | 1.7 | 5.2 | 0.00 | 0.00 | 0.00 | 79 | 1015.7 |
| 20260831123805 | 76 | 159 | 1.7 | 4.3 | 0.00 | 0.00 | 0.00 | 79 | 1015.5 |
| 20260831123304 | 76 | 159 | 2.6 | 5.2 | 0.00 | 0.00 | 0.00 | 79 | 1015.5 |
| 20260831121805 | 76 | 160 | 2.6 | 7.0 | 0.00 | 0.00 | 0.00 | 79 | 1015.3 |
| 20260831121304 | 76 | 158 | 2.6 | 7.0 | 0.00 | 0.00 | 0.00 | 79 | 1015.3 |
| 20260831120804 | 76 | 152 | 3.5 | 7.0 | 0.00 | 0.00 | 0.00 | 79 | 1015.3 |
| 20260831120304 | 76 | 160 | 3.5 | 7.0 | 0.00 | 0.00 | 0.00 | 79 | 1015.3 |
| 20260831114805 | 76 | 155 | 2.6 | 4.3 | 0.00 | 0.00 | 0.00 | 79 | 1015.2 |
| 20260831114304 | 76 | 147 | 2.6 | 4.3 | 0.00 | 0.00 | 0.00 | 79 | 1015.2 |
| 20260831113805 | 76 | 151 | 2.6 | 5.2 | 0.00 | 0.00 | 0.00 | 79 | 1015.3 |
| 20260831113305 | 76 | 155 | 1.7 | 5.2 | 0.00 | 0.00 | 0.00 | 79 | 1015.3 |
| 20260831111804 | 76 | 160 | 1.7 | 5.2 | 0.00 | 0.00 | 0.00 | 78 | 1015.2 |
| 20260831111305 | 76 | 158 | 2.6 | 5.2 | 0.00 | 0.00 | 0.00 | 78 | 1015.2 |
| 20260831110805 | 76 | 158 | 3.5 | 7.0 | 0.00 | 0.00 | 0.00 | 78 | 1015.1 |
| 20260831110305 | 76 | 160 | 4.3 | 7.0 | 0.00 | 0.00 | 0.00 | 78 | 1015.1 |
| 20260831104804 | 77 | 157 | 2.6 | 5.2 | 0.00 | 0.00 | 0.00 | 78 | 1015.2 |
| 20260831104305 | 77 | 163 | 3.5 | 7.8 | 0.00 | 0.00 | 0.00 | 78 | 1015.2 |
| 20260831103804 | 77 | 158 | 2.6 | 7.0 | 0.00 | 0.00 | 0.00 | 78 | 1015.1 |
| 20260831101804 | 77 | 181 | 1.7 | 5.2 | 0.00 | 0.00 | 0.00 | 78 | 1015.2 |
| 20260831100304 | 77 | 160 | 4.3 | 7.0 | 0.00 | 0.00 | 0.00 | 78 | 1015.2 |
| 20260831094805 | 77 | 160 | 2.6 | 7.0 | 0.00 | 0.00 | 0.00 | 78 | 1015.2 |
| 20260831094304 | 77 | 157 | 2.6 | 7.0 | 0.00 | 0.00 | 0.00 | 77 | 1015.2 |
| 20260831093804 | 77 | 172 | 2.6 | 5.2 | 0.00 | 0.00 | 0.00 | 77 | 1015.2 |
| 20260831093304 | 77 | 173 | 1.7 | 7.0 | 0.00 | 0.00 | 0.00 | 77 | 1015.2 |
| 20260831091804 | 77 | 159 | 4.3 | 7.8 | 0.00 | 0.00 | 0.00 | 77 | 1015.1 |
| 20260831091304 | 77 | 168 | 4.3 | 8.7 | 0.00 | 0.00 | 0.00 | 77 | 1015.1 |
| 20260831090804 | 77 | 170 | 6.1 | 12.2 | 0.00 | 0.00 | 0.00 | 77 | 1015.1 |
| 20260831090304 | 77 | 140 | 2.6 | 8.7 | 0.00 | 0.00 | 0.00 | 76 | 1015.0 |
| 20260831084304 | 78 | 164 | 4.3 | 7.8 | 0.00 | 0.00 | 0.00 | 75 | 1015.1 |
| 20260831083804 | 78 | 163 | 4.3 | 8.7 | 0.00 | 0.00 | 0.00 | 75 | 1015.1 |
| 20260831083304 | 78 | 156 | 5.2 | 11.3 | 0.00 | 0.00 | 0.00 | 75 | 1015.1 |
| 20260831081804 | 78 | 159 | 6.1 | 11.3 | 0.00 | 0.00 | 0.00 | 74 | 1015.1 |
| 20260831081304 | 78 | 178 | 5.2 | 8.7 | 0.00 | 0.00 | 0.00 | 74 | 1015.1 |
| 20260831080804 | 78 | 164 | 6.1 | 8.7 | 0.00 | 0.00 | 0.00 | 73 | 1015.1 |
| 20260831074804 | 79 | 164 | 6.1 | 10.4 | 0.00 | 0.00 | 0.00 | 72 | 1015.1 |
| 20260831074304 | 79 | 171 | 6.1 | 10.4 | 0.00 | 0.00 | 0.00 | 72 | 1015.1 |
| 20260831073804 | 79 | 164 | 4.3 | 10.4 | 0.00 | 0.00 | 0.00 | 72 | 1015.1 |
| 20260831073304 | 79 | 161 | 5.2 | 13.9 | 0.00 | 0.00 | 0.00 | 71 | 1015.2 |
| 20260831071805 | 80 | 163 | 6.1 | 13.9 | 0.00 | 0.00 | 0.00 | 70 | 1015.2 |
| 20260831071306 | 80 | 174 | 4.3 | 10.4 | 0.00 | 0.00 | 0.00 | 70 | 1015.2 |
| 20260831070304 | 80 | 166 | 6.1 | 13.9 | 0.00 | 0.00 | 0.00 | 69 | 1015.1 |
| 20260831064805 | 81 | 164 | 6.1 | 13.0 | 0.00 | 0.00 | 0.00 | 68 | 1015.2 |
| 20260831064305 | 81 | 152 | 5.2 | 10.4 | 0.00 | 0.00 | 0.00 | 67 | 1015.3 |
| 20260831063804 | 81 | 161 | 6.1 | 12.2 | 0.00 | 0.00 | 0.00 | 67 | 1015.3 |
| 20260831063304 | 81 | 169 | 8.7 | 13.0 | 0.00 | 0.00 | 0.00 | 67 | 1015.2 |
| 20260831061804 | 82 | 153 | 6.1 | 12.2 | 0.00 | 0.00 | 0.00 | 68 | 1015.2 |
| 20260831061304 | 82 | 148 | 6.1 | 10.4 | 0.00 | 0.00 | 0.00 | 67 | 1015.1 |
| 20260831060304 | 82 | 165 | 7.0 | 14.8 | 0.00 | 0.00 | 0.00 | 67 | 1015.0 |
| 20260831054304 | 83 | 169 | 6.1 | 13.0 | 0.00 | 0.00 | 0.00 | 66 | 1015.0 |
| 20260831053804 | 83 | 172 | 6.1 | 11.3 | 0.00 | 0.00 | 0.00 | 66 | 1014.9 |
| 20260831051804 | 83 | 163 | 5.2 | 10.4 | 0.00 | 0.00 | 0.00 | 65 | 1014.7 |
| 20260831051304 | 84 | 168 | 5.2 | 12.2 | 0.00 | 0.00 | 0.00 | 64 | 1014.7 |
| 20260831050804 | 84 | 165 | 6.1 | 12.2 | 0.00 | 0.00 | 0.00 | 64 | 1014.7 |
| 20260831050304 | 84 | 173 | 7.8 | 13.9 | 0.00 | 0.00 | 0.00 | 63 | 1014.7 |
| 20260831044804 | 84 | 166 | 7.0 | 15.6 | 0.00 | 0.00 | 0.00 | 62 | 1014.6 |
| 20260831043804 | 85 | 159 | 9.6 | 14.8 | 0.00 | 0.00 | 0.00 | 62 | 1014.5 |
| 20260831041804 | 85 | 167 | 13.0 | 15.6 | 0.00 | 0.00 | 0.00 | 60 | 1014.5 |
| 20260831041305 | 86 | 157 | 8.7 | 17.4 | 0.00 | 0.00 | 0.00 | 59 | 1014.4 |
| 20260831034804 | 86 | 156 | 11.3 | 18.2 | 0.00 | 0.00 | 0.00 | 56 | 1014.3 |
| 20260831034305 | 86 | 160 | 10.4 | 15.6 | 0.00 | 0.00 | 0.00 | 56 | 1014.2 |
| 20260831033804 | 87 | 159 | 10.4 | 17.4 | 0.00 | 0.00 | 0.00 | 56 | 1014.1 |
| 20260831033304 | 87 | 148 | 8.7 | 15.6 | 0.00 | 0.00 | 0.00 | 55 | 1014.1 |
| 20260831031804 | 87 | 154 | 10.4 | 14.8 | 0.00 | 0.00 | 0.00 | 54 | 1013.9 |
| 20260831031305 | 87 | 163 | 7.0 | 15.6 | 0.00 | 0.00 | 0.00 | 54 | 1013.8 |
| 20260831030804 | 88 | 148 | 8.7 | 14.8 | 0.00 | 0.00 | 0.00 | 53 | 1013.8 |
| 20260831030305 | 88 | 162 | 9.6 | 15.6 | 0.00 | 0.00 | 0.00 | 53 | 1013.7 |
| 20260831024304 | 89 | 151 | 12.2 | 15.6 | 0.00 | 0.00 | 0.00 | 50 | 1013.3 |
| 20260831023804 | 89 | 155 | 11.3 | 20.9 | 0.00 | 0.00 | 0.00 | 50 | 1013.2 |
| 20260831020804 | 89 | 140 | 2.6 | 4.3 | 0.00 | 0.00 | 0.00 | 44 | 1012.7 |
| 20260831020304 | 89 | 135 | 3.5 | 7.8 | 0.00 | 0.00 | 0.00 | 43 | 1012.6 |
| 20260831014804 | 90 | 130 | 2.6 | 7.0 | 0.00 | 0.00 | 0.00 | 43 | 1012.5 |
| 20260831014304 | 90 | 129 | 3.5 | 7.8 | 0.00 | 0.00 | 0.00 | 43 | 1012.4 |
| 20260831013804 | 90 | 151 | 2.6 | 4.3 | 0.00 | 0.00 | 0.00 | 43 | 1012.3 |
| 20260831013304 | 90 | 153 | 1.7 | 7.8 | 0.00 | 0.00 | 0.00 | 43 | 1012.3 |
| 20260831011804 | 91 | 151 | 4.3 | 7.0 | 0.00 | 0.00 | 0.00 | 42 | 1012.1 |
| 20260831011304 | 91 | 130 | 4.3 | 7.8 | 0.00 | 0.00 | 0.00 | 41 | 1012.1 |
| 20260831010804 | 92 | 143 | 4.3 | 8.7 | 0.00 | 0.00 | 0.00 | 41 | 1012.1 |
| 20260831010304 | 92 | 155 | 6.1 | 13.0 | 0.00 | 0.00 | 0.00 | 41 | 1012.1 |
| 20260831004804 | 92 | 154 | 7.8 | 13.9 | 0.00 | 0.00 | 0.00 | 40 | 1012.1 |
| 20260831004304 | 92 | 154 | 4.3 | 7.8 | 0.00 | 0.00 | 0.00 | 39 | 1012.1 |
| 20260831003804 | 93 | 167 | 2.6 | 5.2 | 0.00 | 0.00 | 0.00 | 39 | 1012.0 |
| 20260831003304 | 93 | 157 | 1.7 | 7.0 | 0.00 | 0.00 | 0.00 | 39 | 1012.0 |
| 20260831001804 | 93 | 144 | 0.9 | 2.6 | 0.00 | 0.00 | 0.00 | 38 | 1012.0 |
| 20260831001304 | 93 | 141 | 5.2 | 10.4 | 0.00 | 0.00 | 0.00 | 38 | 1012.0 |
| 20260831000804 | 94 | 166 | 4.3 | 7.8 | 0.00 | 0.00 | 0.00 | 38 | 1011.9 |
| 20260831000305 | 94 | 160 | 2.6 | 8.7 | 0.00 | 0.00 | 0.00 | 38 | 1012.0 |
| 20260830234804 | 94 | 155 | 4.3 | 8.7 | 0.00 | 0.00 | 0.00 | 37 | 1012.0 |
| 20260830234304 | 94 | 147 | 7.8 | 13.9 | 0.00 | 0.00 | 0.00 | 37 | 1012.0 |
| 20260830233805 | 94 | 153 | 6.1 | 11.3 | 0.00 | 0.00 | 0.00 | 36 | 1012.1 |
| 20260830233305 | 94 | 151 | 6.1 | 13.0 | 0.00 | 0.00 | 0.00 | 36 | 1012.1 |
| 20260830231804 | 94 | 129 | 7.8 | 13.0 | 0.00 | 0.00 | 0.00 | 36 | 1012.1 |
| 20260830231304 | 95 | 154 | 8.7 | 15.6 | 0.00 | 0.00 | 0.00 | 36 | 1012.1 |
| 20260830230804 | 95 | 160 | 6.1 | 13.9 | 0.00 | 0.00 | 0.00 | 35 | 1012.1 |
| 20260830230304 | 95 | 160 | 6.1 | 13.9 | 0.00 | 0.00 | 0.00 | 35 | 1012.1 |
| 20260830224805 | 95 | 165 | 6.1 | 15.6 | 0.00 | 0.00 | 0.00 | 37 | 1012.2 |
| 20260830224304 | 95 | 146 | 5.2 | 12.2 | 0.00 | 0.00 | 0.00 | 36 | 1012.3 |
| 20260830223304 | 95 | 159 | 5.2 | 14.8 | 0.00 | 0.00 | 0.00 | 35 | 1012.3 |
| 20260830221804 | 95 | 118 | 6.1 | 12.2 | 0.00 | 0.00 | 0.00 | 36 | 1012.3 |
| 20260830221304 | 95 | 153 | 9.6 | 13.0 | 0.00 | 0.00 | 0.00 | 36 | 1012.4 |
| 20260830220804 | 95 | 153 | 7.8 | 14.8 | 0.00 | 0.00 | 0.00 | 37 | 1012.4 |
| 20260830220304 | 95 | 144 | 9.6 | 15.6 | 0.00 | 0.00 | 0.00 | 38 | 1012.3 |
| 20260830214304 | 95 | 185 | 5.2 | 13.0 | 0.00 | 0.00 | 0.00 | 38 | 1012.5 |
| 20260830213804 | 95 | 177 | 7.8 | 18.2 | 0.00 | 0.00 | 0.00 | 38 | 1012.5 |
| 20260830213305 | 95 | 188 | 6.1 | 15.6 | 0.00 | 0.00 | 0.00 | 39 | 1012.6 |
| 20260830211304 | 94 | 134 | 7.8 | 14.8 | 0.00 | 0.00 | 0.00 | 40 | 1013.0 |